| time (UTC) | temp F | wind direction | speed MPH | gust MPH | rain 1hr in | rain 24hr in | rain mn in | humidity % | barometer mb |
| 20260509164545 | 73 | 146 | 2.0 | 7.0 | 0.00 | 0.02 | 0.02 | 71 | 1013.1 |
| 20260509163055 | 74 | 138 | 4.0 | 8.0 | 0.00 | 0.02 | 0.02 | 69 | 1013.4 |
| 20260509161543 | 75 | 150 | 4.0 | 8.0 | 0.00 | 0.02 | 0.02 | 69 | 1013.3 |
| 20260509160041 | 75 | 130 | 1.0 | 5.0 | 0.00 | 0.02 | 0.02 | 70 | 1013.4 |
| 20260509154537 | 72 | 117 | 2.0 | 5.0 | 0.00 | 0.02 | 0.02 | 75 | 1013.5 |
| 20260509153035 | 71 | 22 | 0.0 | 0.0 | 0.00 | 0.02 | 0.02 | 76 | 1013.9 |
| 20260509151530 | 70 | 21 | 0.0 | 0.0 | 0.00 | 0.02 | 0.02 | 78 | 1014.1 |
| 20260509150027 | 69 | 21 | 0.0 | 1.0 | 0.00 | 0.02 | 0.02 | 78 | 1014.2 |
| 20260509144525 | 68 | 21 | 1.0 | 1.0 | 0.00 | 0.02 | 0.02 | 81 | 1014.0 |
| 20260509143027 | 68 | 21 | 0.0 | 2.0 | 0.00 | 0.02 | 0.02 | 82 | 1014.1 |
| 20260509141518 | 67 | 21 | 0.0 | 0.0 | 0.00 | 0.02 | 0.02 | 82 | 1014.0 |
| 20260509140015 | 66 | 21 | 0.0 | 3.0 | 0.00 | 0.02 | 0.02 | 85 | 1014.0 |
| 20260509134513 | 65 | 21 | 0.0 | 1.0 | 0.01 | 0.02 | 0.02 | 85 | 1014.1 |
| 20260509133011 | 65 | 21 | 0.0 | 2.0 | 0.02 | 0.02 | 0.02 | 86 | 1014.2 |
| 20260509131512 | 64 | 21 | 0.0 | 3.0 | 0.02 | 0.02 | 0.02 | 86 | 1014.1 |
| 20260509130014 | 64 | 20 | 0.0 | 1.0 | 0.02 | 0.02 | 0.02 | 87 | 1014.1 |
| 20260509124508 | 64 | 21 | 0.0 | 3.0 | 0.01 | 0.01 | 0.01 | 87 | 1014.1 |
| 20260509123008 | 64 | 20 | 0.0 | 3.0 | 0.00 | 0.00 | 0.00 | 86 | 1014.1 |
| 20260509121510 | 64 | 165 | 0.0 | 2.0 | 0.00 | 0.00 | 0.00 | 87 | 1014.1 |
| 20260509120013 | 64 | 165 | 0.0 | 1.0 | 0.00 | 0.00 | 0.00 | 87 | 1013.9 |
| 20260509114506 | 63 | 165 | 0.0 | 2.0 | 0.00 | 0.00 | 0.00 | 88 | 1014.0 |
| 20260509113006 | 63 | 166 | 1.0 | 3.0 | 0.00 | 0.00 | 0.00 | 88 | 1014.0 |
| 20260509111505 | 63 | 161 | 1.0 | 3.0 | 0.00 | 0.00 | 0.00 | 88 | 1013.8 |
| 20260509110004 | 63 | 156 | 0.0 | 2.0 | 0.00 | 0.00 | 0.00 | 88 | 1013.5 |
| 20260509104508 | 63 | 156 | 0.0 | 1.0 | 0.00 | 0.00 | 0.00 | 88 | 1013.2 |
| 20260509103004 | 63 | 155 | 0.0 | 1.0 | 0.00 | 0.00 | 0.00 | 89 | 1013.3 |
| 20260509101503 | 63 | 155 | 0.0 | 0.0 | 0.00 | 0.00 | 0.00 | 89 | 1013.4 |
| 20260509100003 | 63 | 156 | 0.0 | 1.0 | 0.00 | 0.00 | 0.00 | 89 | 1013.0 |
| 20260509094504 | 63 | 155 | 0.0 | 1.0 | 0.00 | 0.00 | 0.00 | 89 | 1013.3 |
| 20260509093002 | 63 | 156 | 0.0 | 2.0 | 0.00 | 0.00 | 0.00 | 88 | 1013.5 |
| 20260509091603 | 63 | 156 | 0.0 | 1.0 | 0.00 | 0.00 | 0.00 | 88 | 1013.7 |
| 20260509090100 | 63 | 156 | 1.0 | 2.0 | 0.00 | 0.00 | 0.00 | 88 | 1013.7 |
| 20260509084604 | 63 | 156 | 0.0 | 2.0 | 0.00 | 0.00 | 0.00 | 88 | 1014.1 |
| 20260509083100 | 63 | 156 | 0.0 | 2.0 | 0.00 | 0.00 | 0.00 | 87 | 1014.0 |
| 20260509081559 | 63 | 156 | 0.0 | 3.0 | 0.00 | 0.00 | 0.00 | 88 | 1014.1 |
| 20260509080139 | 63 | 155 | 0.0 | 3.0 | 0.00 | 0.00 | 0.00 | 88 | 1014.1 |
| 20260509074557 | 63 | 155 | 0.0 | 0.0 | 0.00 | 0.00 | 0.00 | 88 | 1014.1 |
| 20260509073206 | 63 | 155 | 0.0 | 0.0 | 0.00 | 0.00 | 0.00 | 87 | 1014.5 |
| 20260509071555 | 63 | 155 | 0.0 | 0.0 | 0.00 | 0.00 | 0.00 | 87 | 1014.9 |
| 20260509070054 | 63 | 155 | 0.0 | 0.0 | 0.00 | 0.00 | 0.00 | 86 | 1014.7 |
| 20260509064552 | 63 | 154 | 0.0 | 0.0 | 0.00 | 0.00 | 0.00 | 86 | 1014.9 |
| 20260509063052 | 63 | 154 | 0.0 | 0.0 | 0.00 | 0.00 | 0.00 | 86 | 1014.9 |
| 20260509061555 | 63 | 151 | 0.0 | 0.0 | 0.00 | 0.00 | 0.00 | 85 | 1015.1 |
| 20260509060050 | 63 | 146 | 0.0 | 0.0 | 0.00 | 0.00 | 0.00 | 85 | 1015.3 |
| 20260509054549 | 63 | 144 | 0.0 | 0.0 | 0.00 | 0.00 | 0.00 | 84 | 1015.5 |
| 20260509053051 | 64 | 144 | 1.0 | 3.0 | 0.00 | 0.00 | 0.00 | 83 | 1015.5 |
| 20260509051556 | 64 | 144 | 0.0 | 2.0 | 0.00 | 0.00 | 0.00 | 83 | 1015.6 |
| 20260509050045 | 64 | 144 | 1.0 | 3.0 | 0.00 | 0.00 | 0.00 | 83 | 1015.4 |
| 20260509044543 | 64 | 143 | 0.0 | 2.0 | 0.00 | 0.00 | 0.00 | 81 | 1015.6 |
| 20260509043052 | 64 | 143 | 1.0 | 3.0 | 0.00 | 0.00 | 0.00 | 80 | 1015.6 |
| 20260509041541 | 64 | 143 | 0.0 | 3.0 | 0.00 | 0.00 | 0.00 | 80 | 1015.7 |
| 20260509040040 | 64 | 142 | 2.0 | 5.0 | 0.00 | 0.00 | 0.00 | 79 | 1016.1 |
| 20260509034540 | 64 | 146 | 2.0 | 5.0 | 0.00 | 0.00 | 0.00 | 79 | 1016.2 |
| 20260509033039 | 64 | 147 | 2.0 | 4.0 | 0.00 | 0.00 | 0.00 | 78 | 1016.3 |
| 20260509031538 | 65 | 153 | 0.0 | 3.0 | 0.00 | 0.00 | 0.00 | 78 | 1016.2 |
| 20260509030041 | 65 | 156 | 2.0 | 5.0 | 0.00 | 0.00 | 0.00 | 77 | 1016.2 |
| 20260509024537 | 65 | 134 | 4.0 | 7.0 | 0.00 | 0.00 | 0.00 | 76 | 1016.3 |
| 20260509023037 | 65 | 126 | 4.0 | 8.0 | 0.00 | 0.00 | 0.00 | 76 | 1016.6 |
| 20260509021537 | 65 | 139 | 6.0 | 9.0 | 0.00 | 0.00 | 0.00 | 76 | 1016.5 |
| 20260509020036 | 65 | 135 | 4.0 | 9.0 | 0.00 | 0.00 | 0.00 | 76 | 1016.3 |
| 20260509014536 | 65 | 137 | 4.0 | 8.0 | 0.00 | 0.00 | 0.00 | 75 | 1016.2 |
| 20260509013046 | 65 | 124 | 5.0 | 9.0 | 0.00 | 0.00 | 0.00 | 74 | 1016.1 |
| 20260509011535 | 65 | 124 | 4.0 | 10.0 | 0.00 | 0.00 | 0.00 | 74 | 1015.8 |
| 20260509010037 | 65 | 151 | 6.0 | 10.0 | 0.00 | 0.00 | 0.00 | 73 | 1015.8 |
| 20260509004558 | 65 | 154 | 4.0 | 10.0 | 0.00 | 0.00 | 0.00 | 72 | 1015.9 |
| 20260509003041 | 65 | 151 | 4.0 | 9.0 | 0.00 | 0.00 | 0.00 | 71 | 1016.0 |
| 20260509001534 | 65 | 125 | 4.0 | 9.0 | 0.00 | 0.00 | 0.00 | 70 | 1015.9 |
| 20260509000032 | 65 | 177 | 3.0 | 7.0 | 0.00 | 0.00 | 0.00 | 69 | 1015.9 |
| 20260508234532 | 66 | 157 | 4.0 | 8.0 | 0.00 | 0.00 | 0.00 | 68 | 1016.0 |
| 20260508233032 | 66 | 145 | 5.0 | 9.0 | 0.00 | 0.00 | 0.00 | 68 | 1015.6 |
| 20260508231531 | 67 | 184 | 6.0 | 10.0 | 0.00 | 0.00 | 0.00 | 67 | 1015.8 |
| 20260508230043 | 67 | 184 | 5.0 | 10.0 | 0.00 | 0.00 | 0.00 | 66 | 1015.6 |
| 20260508224529 | 68 | 127 | 6.0 | 10.0 | 0.00 | 0.00 | 0.00 | 65 | 1015.4 |
| 20260508223029 | 68 | 115 | 6.0 | 11.0 | 0.00 | 0.00 | 0.00 | 63 | 1015.6 |
| 20260508221529 | 69 | 148 | 6.0 | 11.0 | 0.00 | 0.00 | 0.00 | 58 | 1015.5 |
| 20260508220028 | 70 | 153 | 8.0 | 11.0 | 0.00 | 0.00 | 0.00 | 52 | 1015.6 |
| 20260508214527 | 70 | 137 | 5.0 | 13.0 | 0.00 | 0.00 | 0.00 | 58 | 1015.6 |
| 20260508213027 | 70 | 153 | 6.0 | 12.0 | 0.00 | 0.00 | 0.00 | 60 | 1015.6 |
| 20260508211531 | 70 | 155 | 9.0 | 13.0 | 0.00 | 0.00 | 0.00 | 59 | 1015.6 |
| 20260508210029 | 70 | 132 | 6.0 | 11.0 | 0.00 | 0.00 | 0.00 | 62 | 1015.7 |
| 20260508204525 | 71 | 146 | 6.0 | 14.0 | 0.00 | 0.00 | 0.00 | 60 | 1015.8 |
| 20260508203025 | 72 | 174 | 6.0 | 13.0 | 0.00 | 0.00 | 0.00 | 57 | 1015.7 |
| 20260508201524 | 70 | 158 | 7.0 | 14.0 | 0.00 | 0.00 | 0.00 | 58 | 1015.6 |
| 20260508200035 | 71 | 136 | 8.0 | 13.0 | 0.00 | 0.00 | 0.00 | 56 | 1016.0 |
| 20260508194523 | 71 | 132 | 9.0 | 14.0 | 0.00 | 0.00 | 0.00 | 56 | 1016.1 |
| 20260508193025 | 72 | 132 | 6.0 | 12.0 | 0.00 | 0.00 | 0.00 | 55 | 1016.2 |
| 20260508191524 | 72 | 135 | 7.0 | 12.0 | 0.00 | 0.00 | 0.00 | 56 | 1016.4 |
| 20260508190022 | 73 | 116 | 7.0 | 11.0 | 0.00 | 0.05 | 0.00 | 53 | 1016.4 |
| 20260508184542 | 74 | 137 | 5.0 | 11.0 | 0.00 | 0.05 | 0.00 | 51 | 1016.6 |
| 20260508183019 | 74 | 132 | 4.0 | 11.0 | 0.00 | 0.05 | 0.00 | 50 | 1016.6 |
| 20260508181536 | 74 | 135 | 5.0 | 9.0 | 0.00 | 0.05 | 0.00 | 45 | 1016.7 |
| 20260508180017 | 73 | 121 | 5.0 | 10.0 | 0.00 | 0.11 | 0.00 | 44 | 1016.7 |
| 20260508174517 | 72 | 132 | 3.0 | 9.0 | 0.00 | 0.11 | 0.00 | 43 | 1016.6 |
| 20260508173013 | 73 | 92 | 5.0 | 10.0 | 0.00 | 0.11 | 0.00 | 48 | 1016.7 |
| 20260508171510 | 72 | 125 | 5.0 | 10.0 | 0.00 | 0.11 | 0.00 | 51 | 1016.9 |